Home   Weather   Zug   Past weeks

Flag for Switzerland Past Weather in Zug, Zug, Switzerland — Yesterday and Last 2 Weeks

Now
65 °F

Mild.


Feels Like: 65 °F
Forecast: 47 / 71 °F
Wind: 2 mph from Northwest

Location: Zuerich-Fluntern

Current Time: Aug 20, 2017 at 9:10:53 pm

Latest Report: Aug 20, 2017 at 8:00 pm


Visibility: N/A

Pressure: 30.21 "Hg

Humidity: 47%

Dew Point: 44 °F

Location of ZugLocation

Past Weather in Zug — Graph

°F

Zug Temperature Yesterday

Maximum temperature yesterday: 69 °F (at 5:00 pm)
Minimum temperature yesterday: 58 °F (at 7:00 am)
Average temperature yesterday: 63 °F

High & Low Weather Summary for the Past Weeks

 TemperatureHumidityPressure
High85 °F (Aug 18, 3:00 pm)97% (Aug 10, 1:00 am)30.25 "Hg (Aug 10, 1:00 am)
Low51 °F (Aug 11, 12:00 am)38% (Aug 15, 5:00 pm)29.81 "Hg (Aug 18, 5:00 pm)
Average64 °F76%30.08 "Hg
* Reported Aug 5 7:00 pm — Aug 20 7:00 pm, Zug. Weather by CustomWeather, © 2017

Note: Actual official high and low records may vary slightly from our data, if they occured in-between our weather recording intervals... More about our weather records

Advertising

Zug Weather History for the Previous 24 Hours

Scroll right to see more
 ConditionsComfort  
Time TempWeatherWind HumidityBarometerVisibility
7:00 pm
Sun, Aug 20
67 °FMild.5 mph40%30.20 "HgN/A
6:00 pm68 °FMild.7 mph38%30.20 "HgN/A
5:00 pm69 °FMild.7 mph40%30.20 "HgN/A
4:00 pm66 °FMild.6 mph43%30.21 "HgN/A
3:00 pm68 °FMild.6 mph40%30.20 "HgN/A
2:00 pm68 °FMild.7 mph42%30.21 "HgN/A
1:00 pm64 °FMild.1 mph53%30.23 "HgN/A
12:00 pm62 °FRefreshingly cool.2 mph56%30.25 "HgN/A
11:00 am62 °FRefreshingly cool.3 mph60%30.24 "HgN/A
10:00 am60 °FCool.3 mph66%30.25 "HgN/A
9:00 am58 °FCool.2 mph69%30.24 "HgN/A
8:00 am57 °FCool.2 mph71%30.24 "HgN/A
7:00 am55 °FCool.2 mph80%30.24 "HgN/A
6:00 am55 °FCool.2 mph79%30.23 "HgN/A
5:00 am56 °FCool.5 mph73%30.22 "HgN/A
4:00 am57 °FCool.1 mph78%30.21 "HgN/A
3:00 am57 °FCool.2 mph76%30.21 "HgN/A
2:00 am58 °FCool.3 mph69%30.20 "HgN/A
1:00 am59 °FCool.3 mph65%30.20 "HgN/A
12:00 am60 °FCool.3 mph66%30.20 "HgN/A
11:00 pm
Sat, Aug 19
61 °FCool.2 mph61%30.19 "HgN/A
10:00 pm62 °FRefreshingly cool.3 mph55%30.16 "HgN/A
9:00 pm62 °FRefreshingly cool.2 mph59%30.15 "HgN/A
Weather by CustomWeather, © 2017

See weather overviewHow to use our weather pages